This demonstration page uses our WeatherBlox Daily Observations layout. Learn more.

39.01783, -85.05884

Hourly Observations for November 7, 2019

Temp ( °F °C ) Dew Point ( °F °C ) Humidity (%) Winds ( mph kmh ) Pressure ( in mb ) Visibility ( mi km ) Precip ( " mm )
12:52 am 00:52 Cloudy with Light Rain 48 8.9 46 7.8 93 93 SSW 3 6 30.2 1023 8 12.87472 0.001 0.001
1:52 am 01:52 Cloudy with Light Rain 48 8.9 46 7.8 93 93 Calm 30.16 1021 4 6.43736 0.04 1.016
2:20 am 02:20 Cloudy with Mist and Fog 49 9.4 46 7.8 90 90 SW 3 6 30.19 1022 6 9.65604 0.001 0.001
2:52 am 02:52 Cloudy 49 9.4 46 7.8 90 90 W 6 9 30.19 1022 8 12.87472 0.001 0.001
3:06 am 03:06 Cloudy with Light Drizzle 49 9.4 46 7.8 90 90 W 6 9 30.19 1022 2 3.21868 0.001 0.001
3:21 am 03:21 Cloudy with Light Rain 48 8.9 46 7.8 93 93 NW 6 9 30.2 1023 1 1.60934 0.01 0.254
3:52 am 03:52 Cloudy with Light Rain 48 8.9 46 7.8 93 93 WNW 3 6 30.18 1022 1 1.60934 0.02 0.508
4:40 am 04:40 Cloudy with Light Rain 48 8.9 46 7.8 93 93 N 3 6 30.21 1023 1 1.60934 0.02 0.508
4:52 am 04:52 Cloudy with Light Rain 48 8.9 46 7.8 93 93 NNW 3 6 30.2 1023 1 1.60934 0.04 1.016
5:25 am 05:25 Cloudy with Heavy Rain 47 8.3 45 7.2 93 93 N 7 11 30.21 1023 2 3.21868 0.05 1.27
5:52 am 05:52 Cloudy with Light Rain 47 8.3 44 6.7 90 90 NNW 8 13 30.18 1022 4 6.43736 0.11 2.794
6:40 am 06:40 Cloudy with Light Rain 45 7.2 41 5 86 86 N 12 19 30.21 1023 5 8.0467 0.03 0.762
6:52 am 06:52 Cloudy with Rain 45 7.2 42 5.6 90 90 N 10 17 30.19 1022 5 8.0467 0.04 1.016
7:38 am 07:38 Cloudy with Light Rain 45 7.2 42 5.6 90 90 NNW 9 15 30.22 1023 4 6.43736 0.04 1.016
7:52 am 07:52 Cloudy with Light Rain 44 6.7 41 5 89 89 NNW 14 22 30.2 1023 4 6.43736 0.05 1.27
8:04 am 08:04 Cloudy with Light Rain 44 6.7 41 5 89 89 N 10 17 30.23 1024 3 4.82802 0.01 0.254
8:52 am 08:52 Cloudy with Rain 43 6.1 40 4.4 89 89 N 14 22 30.22 1023 3 4.82802 0.05 1.27
9:52 am 09:52 Cloudy with Light Rain 40 4.4 37 2.8 89 89 N 15 24 30.25 1025 2.5 4.02335 0 0
10:33 am 10:33 Cloudy with Light Rain 39 3.9 36 2.2 89 89 N 17 28 30.3 1026 2.5 4.02335 0.04 1.016
10:52 am 10:52 Cloudy with Light Rain 39 3.9 36 2.2 89 89 NNW 12 19 30.28 1025 2.5 4.02335 0.06 1.524
11:10 am 11:10 Cloudy with Light Rain 38 3.3 35 1.7 89 89 N 13 20 30.31 1027 2.5 4.02335 0.02 0.508
11:39 am 11:39 Cloudy with Light Rain/Snow 37 2.8 34 1.1 89 89 N 13 20 30.32 1027 2.5 4.02335 0.05 1.27
11:52 am 11:52 Cloudy with Light Rain/Snow 37 2.8 34 1.1 89 89 NNW 14 22 30.29 1026 2.5 4.02335 0.06 1.524
12:52 pm 12:52 Cloudy with Light Rain/Snow 36 2.2 33 0.6 89 89 N 10 17 30.28 1025 2.5 4.02335 0.02 0.508
1:30 pm 13:30 Cloudy with Light Rain/Snow 37 2.8 33 0.6 86 86 N 10 17 30.31 1026 2.5 4.02335 0.001 0.001
1:52 pm 13:52 Cloudy with Light Rain/Snow 36 2.2 33 0.6 89 89 NNW 12 19 30.27 1025 2.5 4.02335 0.01 0.254
1:56 pm 13:56 Cloudy with Light Rain/Snow 36 2.2 33 0.6 89 89 NNW 13 20 30.3 1026 2.5 4.02335 0.001 0.001
2:01 pm 14:01 Cloudy with Light Rain 37 2.8 33 0.6 86 86 N 12 19 30.3 1026 6 9.65604 0.001 0.001
2:35 pm 14:35 Cloudy 37 2.8 33 0.6 86 86 N 10 17 30.27 1025 10 16.0934 0.001 0.001
2:52 pm 14:52 Cloudy 37 2.8 32 0 82 82 N 12 19 30.24 1024 10 16.0934 0.001 0.001
3:16 pm 15:16 Cloudy 37 2.8 32 0 82 82 N 14 22 30.3 1026 10 16.0934 0 0
3:52 pm 15:52 Cloudy 37 2.8 31 -0.6 79 79 N 9 15 30.27 1025 10 16.0934 0 0
4:52 pm 16:52 Cloudy 37 2.8 30 -1.1 76 76 NNW 14 22 30.3 1026 10 16.0934 0 0
5:27 pm 17:27 Cloudy 37 2.8 26 -3.3 65 65 NNW 13 20 30.35 1028 10 16.0934 0 0
5:52 pm 17:52 Cloudy 36 2.2 27 -2.8 70 70 NNW 8 13 30.32 1027 10 16.0934 0 0
6:52 pm 18:52 Mostly Cloudy 35 1.7 27 -2.8 72 72 N 8 13 30.35 1028 10 16.0934 0 0
7:29 pm 19:29 Mostly Clear 34 1.1 25 -3.9 70 70 NNW 5 7 30.39 1029 10 16.0934 0 0
7:52 pm 19:52 Mostly Clear 34 1.1 25 -3.9 70 70 NNW 3 6 30.35 1028 10 16.0934 0 0
8:52 pm 20:52 Mostly Clear 32 0 25 -3.9 75 75 NW 8 13 30.37 1028 10 16.0934 0 0
9:52 pm 21:52 Clear 31 -0.6 24 -4.4 76 76 NW 12 19 30.37 1029 10 16.0934 0 0
10:52 pm 22:52 Clear 30 -1.1 23 -5 75 75 NNW 8 13 30.38 1029 10 16.0934 0 0
11:52 pm 23:52 Clear 29 -1.7 20 -6.7 69 69 NNW 14 22 30.39 1029 10 16.0934 0 0

Powered by AerisWeather